Погода в Клепке

Россия / Магаданская область     59°45′14″N   151°29′27″E
темп.,
°C
ветер,
м/с
пор.,
м/с
влажн.,
%
обл.,
%
осадки,
мм/ч
давл.,
гПа
погр.,
м
19 сентября, вс
вс1923:00+9в71282100 0.0 1007346
02:00+9в91487100 0.0 1005385
05:00+9в111686100 0.1 1002601
08:00+8вюв111791100 2.7 1001683
11:00+8ююв4594100 6.3 1003327
14:00+8ю3492100 2.1 1003355
17:00+9ююв337997 2.2 1003600
20:00+5в119099 0.0 100410
20 сентября, пн
пн2023:00+6св229097 0.4 100416
02:00+6св2286100 0.1 100320
05:00+5св2289100 0.1 100212
08:00+6всв2286100 0.0 100244
11:00+10св3469100 0.1 1001563
14:00+9всв3478100 1.8 1000828
17:00+6св3489100 4.1 1001311
20:00+6ссв3491100 2.1 1002300
21 сентября, вт
вт2123:00+4ссв3594100 2.3 1003258
02:00+4с3593100 2.8 1003243
05:00+5с4793100 5.6 1003290
08:00+4с4992100 1.6 1004348
11:00+4с4986100 1.8 1006398
14:00+6с5978100 0.1 1006437
17:00+5ссв51187100 0.8 1008384
20:00+5с51082100 0.1 1011313
22 сентября, ср
ср2223:00+4с5979100 0.1 1012253
02:00+4с4977100 0.1 1013229
05:00+4с477797 0.1 1015179
08:00+5с497686 0.0 1017232
11:00+8ссв576399 0.0 1018369
14:00+10ссв356097 0.0 1018561
17:00+11ссв345840 0.0 1018549
20:00+5с338225 0.0 102119
23 сентября, чт
чт2323:00+3ссв328356 0.0 102213
02:00+2ссв22829 0.0 102211
05:00+2ссв22815 0.0 102311
08:00+4ссв227320 0.0 102343
11:00+9ссв12555 0.0 1023387
14:00+12з12480 0.0 1022767
17:00+12юз22540 0.0 1022292
20:00+5сз11810 0.0 102410